Location: Westminster
(33.3626°N, 96.4619°W)
Time: 18:51:56
(UTC+00:00)

Cosmos 1515 Rocket - Pass Details

Date: 25 June 2022
Orbit: 604 x 630 km, 82.5° (Epoch: 17 August)

Event Time Altitude Azimuth Distance (km) Brightness Sun altitude
Rises 09:34:17 0° 9° (N) 2,906 7.9 -18.1°
Reaches altitude 10° 09:36:55 10° 24° (NNE) 1,991 7.2 -17.7°
Maximum altitude 09:40:27 23° 77° (ENE) 1,313 5.9 -17.2°
Drops below altitude 10° 09:43:56 10° 130° (SE) 1,967 6.2 -16.6°
Sets 09:46:30 0° 145° (SE) 2,862 6.9 -16.2°
